[[{"header":{"parameterUnit":"m.s-1","parameterCategory":1,"la1":30.2991,"la2":30.254,"lo1":-89.0895,"lo2":-89.0444,"dy":0.0017,"dx":0.0017,"nx":28,"ny":28,"refTime":"2025-04-16T09:00:00:Z","depth":0,"parameterNumber":2,"parameterNumberName":"U-component_of_WINDS"},"data":[0,0,0,0,0,0,0,0,0,0,0,0,0,0,0,0,0,0,0,0,0,0,0,0,0,0,0,0,0,0,0,0,0,0,0,0,0,0,0,0,0,0,0,0,0,0,0,0,0,0,0,0,0,0,0,0,0,0,-0.1587,-0.1586,0,-0.1521,-0.152,-0.152,-0.1458,-0.1457,-0.1456,-0.1456,-0.139,-0.1389,-0.1388,0,0,0,0,0,0,0,0,0,0,0,0,0,-0.1661,-0.166,-0.1587,-0.1586,-0.1585,-0.1521,-0.152,-0.1519,-0.1458,-0.1457,-0.1456,-0.1455,-0.139,-0.1389,-0.1388,0,0,0,0,0,0,0,0,0,0,0,0,0,-0.1616,-0.166,-0.1587,-0.1547,-0.1542,-0.1521,-0.152,-0.1519,-0.1458,-0.1457,-0.1456,-0.1455,-0.1391,-0.1389,-0.1388,-0.1402,0,0,-0.1383,-0.1382,0,0,0,0,0,0,0,0,-0.1619,-0.1613,-0.1553,-0.1549,-0.1545,-0.1496,-0.1523,-0.148,-0.1458,-0.149,-0.1456,-0.1454,-0.1427,-0.1422,-0.1412,-0.1399,-0.1396,-0.1383,-0.1382,-0.1381,-0.1381,0,0,0,0,0,0,0,-0.1622,-0.1616,-0.1561,-0.1553,-0.1547,-0.1533,-0.1525,-0.1514,-0.1466,-0.1487,-0.1483,-0.1476,-0.1424,-0.1414,-0.141,-0.1395,-0.1383,-0.1382,-0.1381,-0.138,-0.1391,-0.1392,0,0,0,0,0,0,-0.1631,-0.1619,-0.1563,-0.1559,-0.1579,-0.1532,-0.1524,-0.1513,-0.1466,-0.1457,-0.1477,-0.1473,-0.1417,-0.1412,-0.1408,-0.1422,-0.1381,-0.138,-0.1379,-0.139,-0.1391,-0.1392,0,0,0,0,0,0,-0.1633,-0.1626,-0.1566,-0.1587,-0.1579,-0.1532,-0.1521,-0.1512,-0.1502,-0.1458,-0.1449,-0.1475,-0.1416,-0.141,-0.1404,-0.1419,-0.1379,-0.1378,-0.1388,-0.139,-0.1392,-0.145,0,0,0,0,0,0,-0.1635,-0.1627,-0.1632,-0.1588,-0.1578,-0.1562,-0.1522,-0.1512,-0.15,-0.1494,-0.1454,-0.1446,-0.1415,-0.1406,-0.1402,-0.1416,-0.1377,-0.1387,-0.1389,-0.1391,-0.1446,-0.1453,-0.1459,0,0,0,0,0,-0.1638,-0.1651,-0.1632,-0.1626,-0.1582,-0.1563,-0.1557,-0.152,-0.1501,-0.1506,-0.1477,-0.1448,-0.1418,-0.1406,-0.1401,-0.1415,-0.1386,-0.1388,-0.1391,-0.1443,-0.1452,-0.1459,0,0,0,0,0,0,-0.1698,-0.1644,-0.1623,-0.1622,-0.1598,-0.1553,-0.1557,-0.153,-0.1511,-0.1507,-0.1462,-0.1454,-0.1453,-0.1433,-0.1421,-0.1426,-0.1398,-0.1399,-0.1439,-0.1447,-0.1453,-0.1459,-0.1375,0,0,0,0,0,-0.1711,-0.1699,-0.1653,-0.1657,-0.1646,-0.1604,-0.1594,-0.1568,-0.1541,-0.1531,-0.1501,-0.1477,-0.1462,-0.1453,-0.1437,-0.1443,-0.1434,-0.145,-0.1456,-0.1462,-0.1464,-0.1467,-0.1474,-0.1401,-0.1401,-0.1401,0,0,-0.1738,-0.1707,-0.1703,-0.1668,-0.1646,-0.1637,-0.1596,-0.1587,-0.1579,-0.1529,-0.1522,-0.15,-0.147,-0.147,-0.1469,-0.1453,-0.1482,-0.1465,-0.147,-0.1469,-0.147,-0.1477,-0.1484,-0.1403,-0.1403,-0.1402,0,0,-0.1782,-0.1757,-0.1758,-0.1737,-0.1704,-0.1676,-0.1676,-0.1635,-0.1619,-0.1611,-0.1573,-0.1564,-0.1539,-0.1519,-0.1506,-0.1544,-0.1517,-0.154,-0.1574,-0.1578,-0.1583,-0.1588,-0.1603,-0.1609,-0.1542,-0.1543,-0.1543,0,-0.182,-0.1803,-0.1762,-0.1756,-0.1742,-0.1696,-0.1697,-0.1679,-0.1643,-0.1635,-0.1618,-0.1586,-0.1562,-0.1558,-0.1568,-0.1558,-0.1558,-0.1545,-0.1586,-0.159,-0.1594,-0.1608,-0.1613,-0.1546,-0.1545,-0.1545,-0.1545,0,-0.1852,-0.1841,-0.1846,-0.1811,-0.1798,-0.1796,-0.1755,-0.1747,-0.1722,-0.1696,-0.1689,-0.1659,-0.1637,-0.1633,-0.1609,-0.1626,-0.1618,-0.1594,-0.1564,-0.1605,-0.1617,-0.1622,-0.155,-0.1549,-0.1548,-0.1547,0,0,-0.1933,-0.1876,-0.1878,-0.1863,-0.1823,-0.1814,-0.181,-0.1787,-0.1782,-0.1759,-0.1755,-0.1735,-0.1713,-0.1698,-0.1671,-0.1674,-0.1707,-0.1649,-0.1648,-0.1662,-0.1726,-0.1745,-0.1751,-0.1688,-0.1689,-0.169,-0.1729,0,-0.1971,-0.196,-0.1923,-0.1924,-0.1914,-0.187,-0.1866,-0.1843,-0.1818,-0.1807,-0.178,-0.1768,-0.1739,-0.173,-0.173,-0.1703,-0.1719,-0.1699,-0.1685,-0.1685,-0.1695,-0.1757,-0.1777,-0.1815,-0.1733,-0.1734,-0.1734,0,-0.2015,-0.1994,-0.1994,-0.1955,-0.1949,-0.1947,-0.1924,-0.1913,-0.1885,-0.1867,-0.1851,-0.1821,-0.1815,-0.1787,-0.1779,-0.1767,-0.1759,-0.1744,-0.1745,-0.1743,-0.1713,-0.1758,-0.1826,-0.1832,-0.1741,-0.174,-0.174,0,-0.2075,-0.2047,-0.2043,-0.2031,-0.1986,-0.1985,-0.1966,-0.1937,-0.1926,-0.1906,-0.1899,-0.1879,-0.1868,-0.1854,-0.1819,-0.1802,-0.1816,-0.1785,-0.1802,-0.1803,-0.1808,-0.1808,-0.1877,-0.1801,-0.1801,-0.1801,-0.1801,0,-0.2123,-0.2125,-0.207,-0.2068,-0.2069,-0.2027,-0.2029,-0.2006,-0.1981,-0.1975,-0.1935,-0.193,-0.1884,-0.1874,-0.1847,-0.1845,-0.1841,-0.1827,-0.182,-0.1831,-0.1833,-0.1826,-0.1823,-0.1802,-0.1802,-0.1802,-0.1801,0,-0.2191,-0.2154,-0.2147,-0.2105,-0.2094,-0.2097,-0.2061,-0.2058,-0.2031,-0.2024,-0.202,-0.1978,-0.1964,-0.1928,-0.1905,-0.1887,-0.1893,-0.1879,-0.1903,-0.1898,-0.1918,-0.1917,-0.1985,-0.1993,-0.1912,-0.1913,-0.1913,0,-0.2224,-0.2224,-0.2182,-0.2174,-0.2157,-0.2145,-0.2134,-0.2093,-0.2083,-0.2052,-0.2053,-0.2036,-0.202,-0.2,-0.1969,-0.1951,-0.1937,-0.1962,-0.1934,-0.1946,-0.1939,-0.194,-0.194,-0.1969,-0.197,-0.1971,-0.1971,0,-0.2288,-0.227,-0.2254,-0.2233,-0.222,-0.2202,-0.2181,-0.2177,-0.2132,-0.2122,-0.2107,-0.2095,-0.2072,-0.2056,-0.2033,-0.2015,-0.1986,-0.198,-0.1984,-0.1996,-0.201,-0.2004,-0.1921,-0.1979,-0.1978,-0.1978,-0.1977,-0.1977,-0.234,-0.2339,-0.2309,-0.2293,-0.2273,-0.2255,-0.225,-0.2223,-0.221,-0.2187,-0.2163,-0.2152,-0.2124,-0.2091,-0.2075,-0.2065,-0.205,-0.2055,-0.2056,-0.2058,-0.2064,-0.201,-0.2061,-0.2061,-0.206,-0.206,-0.206,0,-0.2403,-0.2381,-0.2368,-0.234,-0.2328,-0.2301,-0.2277,-0.2269,-0.2259,-0.2235,-0.2221,-0.2204,-0.2189,-0.2156,-0.2138,-0.2137,-0.2123,-0.2133,-0.2134,-0.213,-0.2078,-0.2077,-0.2145,-0.2145,-0.2145,-0.2145,-0.2145,-0.2145,-0.2434,-0.2431,-0.2409,-0.2396,-0.2374,-0.2362,-0.235,-0.2334,-0.2315,-0.2298,-0.2285,-0.2263,-0.2237,-0.2216,-0.2201,-0.2192,-0.2188,-0.2203,-0.219,-0.2142,-0.2134,-0.2126,-0.2125,-0.2202,-0.2202,-0.2243,-0.2243,-0.2243]},{"header":{"parameterUnit":"m.s-1","parameterCategory":1,"la1":30.2991,"la2":30.254,"lo1":-89.0895,"lo2":-89.0444,"dy":0.0017,"dx":0.0017,"nx":28,"ny":28,"refTime":"2025-04-16T09:00:00:Z","depth":0,"parameterNumber":3,"parameterNumberName":"V-component_of_WINDS"},"data":[0,0,0,0,0,0,0,0,0,0,0,0,0,0,0,0,0,0,0,0,0,0,0,0,0,0,0,0,0,0,0,0,0,0,0,0,0,0,0,0,0,0,0,0,0,0,0,0,0,0,0,0,0,0,0,0,0,0,3.3125,3.3125,0,3.313,3.313,3.313,3.3122,3.3122,3.3122,3.3122,3.3126,3.3126,3.3127,0,0,0,0,0,0,0,0,0,0,0,0,0,3.3108,3.3108,3.3125,3.3125,3.3125,3.313,3.313,3.313,3.3122,3.3122,3.3122,3.3122,3.3126,3.3126,3.3127,0,0,0,0,0,0,0,0,0,0,0,0,0,3.3115,3.3109,3.3125,3.3122,3.3122,3.313,3.313,3.313,3.3123,3.3122,3.3122,3.3121,3.3126,3.3126,3.3127,3.3138,0,0,3.3128,3.3129,0,0,0,0,0,0,0,0,3.3114,3.3115,3.3122,3.3122,3.3122,3.3125,3.3126,3.3133,3.3123,3.3122,3.3122,3.3121,3.3126,3.3126,3.3128,3.3138,3.3138,3.3128,3.3129,3.3129,3.3129,0,0,0,0,0,0,0,3.3114,3.3115,3.3127,3.3123,3.3122,3.312,3.3121,3.3127,3.3126,3.3122,3.3122,3.3122,3.3126,3.3128,3.3128,3.3139,3.3128,3.3129,3.3129,3.3129,3.3158,3.3159,0,0,0,0,0,0,3.3114,3.3115,3.3127,3.3127,3.3117,3.3121,3.3121,3.3125,3.3126,3.3126,3.3123,3.3122,3.3127,3.3128,3.3128,3.3142,3.3129,3.3129,3.313,3.3158,3.3158,3.3159,0,0,0,0,0,0,3.3114,3.3115,3.3127,3.3121,3.3122,3.3122,3.3125,3.3125,3.3127,3.3127,3.3126,3.3125,3.3127,3.3128,3.3136,3.3142,3.313,3.313,3.3157,3.3158,3.3159,3.3169,0,0,0,0,0,0,3.3113,3.3115,3.3119,3.3121,3.3123,3.3134,3.3126,3.3125,3.3128,3.3127,3.3129,3.3128,3.3126,3.3135,3.3136,3.3142,3.3131,3.3157,3.3158,3.3158,3.3168,3.3169,3.3171,0,0,0,0,0,3.3112,3.3122,3.312,3.3121,3.3128,3.3135,3.3136,3.3133,3.3129,3.3133,3.3133,3.3128,3.3141,3.3136,3.3137,3.3143,3.3156,3.3157,3.3158,3.3167,3.3169,3.3171,0,0,0,0,0,0,3.312,3.3122,3.312,3.313,3.3132,3.3133,3.3139,3.3136,3.3139,3.3138,3.3135,3.3136,3.3144,3.3145,3.3139,3.3155,3.3148,3.3149,3.3154,3.3156,3.3158,3.3157,3.3131,0,0,0,0,0,3.3124,3.3129,3.313,3.3139,3.314,3.3139,3.3142,3.314,3.3143,3.3143,3.3144,3.3146,3.315,3.3153,3.3157,3.3168,3.3168,3.3173,3.3175,3.3176,3.3177,3.3182,3.3184,3.3162,3.3162,3.3162,0,0,3.313,3.3131,3.3135,3.3141,3.3142,3.3148,3.314,3.3146,3.315,3.3144,3.3152,3.3153,3.3155,3.3164,3.3168,3.3165,3.3183,3.3177,3.3178,3.3179,3.3184,3.3186,3.3188,3.3163,3.3163,3.3162,0,0,3.3143,3.3145,3.3153,3.3155,3.3158,3.3157,3.3159,3.3161,3.3161,3.3169,3.3165,3.3169,3.3177,3.3179,3.318,3.3196,3.3192,3.3197,3.3205,3.3211,3.3213,3.3214,3.3219,3.3221,3.3198,3.3198,3.3198,0,3.315,3.3159,3.3157,3.3164,3.3166,3.3162,3.3169,3.3171,3.3175,3.3177,3.3173,3.3183,3.3184,3.3193,3.3197,3.3199,3.3201,3.3196,3.3213,3.3214,3.3215,3.322,3.3222,3.3199,3.3199,3.3199,3.3199,0,3.3167,3.3173,3.3179,3.3183,3.3187,3.3194,3.3193,3.3196,3.3194,3.3194,3.3202,3.3204,3.3208,3.321,3.3208,3.3219,3.3217,3.3213,3.3206,3.3218,3.3223,3.3224,3.32,3.3199,3.3199,3.3199,0,0,3.3185,3.3189,3.3191,3.3193,3.3196,3.3201,3.3208,3.3212,3.3215,3.3218,3.3223,3.323,3.3227,3.3229,3.3227,3.3232,3.3243,3.3227,3.3227,3.323,3.3256,3.3258,3.326,3.3241,3.3241,3.3242,3.3255,0,3.3199,3.3211,3.321,3.3221,3.3226,3.3222,3.3228,3.3231,3.3231,3.3235,3.3235,3.324,3.3235,3.3236,3.3241,3.3241,3.3248,3.324,3.3245,3.3246,3.3244,3.3263,3.3265,3.3278,3.3257,3.3257,3.3257,0,3.3216,3.322,3.3232,3.3234,3.3236,3.3242,3.3246,3.325,3.3253,3.3253,3.3256,3.3253,3.326,3.3253,3.3262,3.3256,3.3259,3.3259,3.3259,3.3259,3.3252,3.3262,3.3282,3.3284,3.326,3.326,3.326,0,3.3227,3.3236,3.3244,3.3246,3.3249,3.3253,3.3254,3.3257,3.326,3.3263,3.3265,3.3269,3.3271,3.3275,3.3273,3.3269,3.3282,3.3276,3.3282,3.3282,3.3284,3.3284,3.3304,3.3287,3.3287,3.3287,3.3287,0,3.3242,3.3249,3.3249,3.3254,3.3262,3.3261,3.3269,3.327,3.3272,3.3277,3.3274,3.3278,3.3277,3.3281,3.328,3.3288,3.3289,3.3288,3.3288,3.3288,3.3288,3.3289,3.3288,3.3287,3.3287,3.3287,3.3287,0,3.3255,3.3256,3.3264,3.3267,3.3268,3.3274,3.3276,3.328,3.3281,3.3287,3.3288,3.3289,3.3294,3.3293,3.3299,3.3298,3.3307,3.3306,3.3306,3.3305,3.3311,3.3311,3.3332,3.3335,3.3317,3.3317,3.3317,0,3.3264,3.327,3.3273,3.3277,3.3279,3.3284,3.3287,3.3286,3.3289,3.3293,3.3297,3.3302,3.3306,3.3314,3.3315,3.3319,3.3318,3.3325,3.3318,3.3318,3.3317,3.3316,3.3317,3.3326,3.3326,3.3326,3.3326,0,3.328,3.328,3.3285,3.329,3.3294,3.3298,3.3301,3.3304,3.3303,3.3307,3.3312,3.3316,3.3322,3.3326,3.333,3.3332,3.3329,3.3329,3.333,3.333,3.333,3.333,3.3309,3.3328,3.3328,3.3328,3.3328,3.3328,3.3291,3.3296,3.3299,3.3305,3.3307,3.3311,3.3315,3.3316,3.3321,3.3326,3.3325,3.3331,3.3334,3.3339,3.3341,3.3346,3.3343,3.3345,3.3346,3.3346,3.3347,3.333,3.3346,3.3346,3.3346,3.3346,3.3346,0,3.3306,3.3308,3.3313,3.3319,3.3323,3.3321,3.3325,3.3328,3.3334,3.3337,3.3341,3.3347,3.3352,3.3353,3.3357,3.3361,3.336,3.3362,3.3361,3.3362,3.3349,3.3347,3.3363,3.3363,3.3363,3.3363,3.3363,3.3363,3.3314,3.3322,3.3323,3.3332,3.3334,3.3341,3.3343,3.3346,3.3348,3.3356,3.336,3.3361,3.3363,3.3368,3.3372,3.3372,3.3374,3.3376,3.3376,3.3364,3.3362,3.3361,3.3359,3.3377,3.3377,3.3388,3.3388,3.3388]}]]